{"data":{"norad_id":64449,"intl_designator":"2025-130M","name":"STARLINK-34459","alt_names":[],"object_type":"PAYLOAD","status":"ACTIVE","operator":null,"country":"US","launch_date":"2025-06-18","launch_site_code":"AFETR","launch_vehicle":null,"mission":null,"orbit_class":"UNKNOWN","rcs_meters":null,"size_class":null,"mass_kg":null,"dimensions":null,"purposes":["comms"],"wikipedia_slug":null,"has_3d_model":false,"image_url":null,"decayed_at":null,"tle_current":{"epoch":"2026-09-20T23:11:59.260704Z","epoch_age_seconds":91015,"freshness":"FRESH","line1":"1 64449U 25130M   26263.96665811  .00006958  00000+0  21693-3 0  9990","line2":"2 64449  53.1574 257.7524 0001342  90.2136 269.9020 15.34392590 70654","mean_motion":15.3439259,"eccentricity":0.0001342,"inclination_deg":53.1574,"raan_deg":257.7524,"arg_perigee_deg":90.2136,"mean_anomaly_deg":269.902,"bstar":0.00021693,"rev_number":7065,"period_min":93.848211297736,"perigee_km":461.80722066145,"apogee_km":463.6433080932,"semimajor_km":6840.8622643773,"source":"CELESTRAK","updated_at":"2026-09-21T09:00:35.354202Z"}}}